timestamp,wind_dir_avg,wind_spd_avg,wind_spd_max_dir,wind_spd_gust,battery_voltage,lat,long
2020-11-30 00:04:01+00:00,281.0,9.6,285.0,11.56,12.49,47.59359,-54.27349
2020-11-30 00:14:01+00:00,277.0,10.08,280.0,12.25,12.49,47.59359,-54.27349
2020-11-30 00:24:01+00:00,277.0,9.83,273.0,12.54,12.49,47.59359,-54.27349
2020-11-30 00:34:01+00:00,275.0,9.91,278.0,11.1,12.49,47.59359,-54.27349
2020-11-30 00:44:01+00:00,276.0,8.98,275.0,10.39,12.49,47.59359,-54.27349
2020-11-30 00:54:01+00:00,274.0,10.1,276.0,14.04,12.49,47.59359,-54.27349
2020-11-30 01:04:01+00:00,282.0,9.97,277.0,11.73,12.49,47.59359,-54.27349
2020-11-30 01:14:01+00:00,279.0,9.67,276.0,11.93,12.41,47.59359,-54.27349
2020-11-30 01:24:01+00:00,278.0,9.99,277.0,12.52,12.41,47.59359,-54.27349
2020-11-30 01:34:01+00:00,280.0,10.06,283.0,12.18,12.41,47.59359,-54.27349
2020-11-30 01:44:01+00:00,280.0,10.6,279.0,11.81,12.41,47.59359,-54.27349
2020-11-30 01:54:01+00:00,279.0,12.39,277.0,13.82,12.41,47.59359,-54.27349
2020-11-30 02:04:01+00:00,275.0,10.28,275.0,12.26,12.41,47.59359,-54.27349
2020-11-30 02:14:01+00:00,281.0,10.84,288.0,13.23,12.41,47.59359,-54.27349
2020-11-30 02:24:01+00:00,284.0,11.91,283.0,13.45,12.41,47.59359,-54.27349
2020-11-30 02:34:01+00:00,281.0,10.2,286.0,11.99,12.41,47.59359,-54.27349
2020-11-30 02:44:01+00:00,286.0,11.45,290.0,13.63,12.41,47.59359,-54.27349
2020-11-30 02:54:01+00:00,278.0,10.72,284.0,12.23,12.41,47.59359,-54.27349
2020-11-30 03:04:01+00:00,286.0,9.4,291.0,11.09,12.41,47.59359,-54.27349
2020-11-30 03:14:01+00:00,277.0,11.05,287.0,13.15,12.33,47.59359,-54.27349
2020-11-30 03:24:01+00:00,274.0,11.28,272.0,13.32,12.33,47.59359,-54.27349
2020-11-30 03:34:01+00:00,275.0,9.53,282.0,11.33,12.33,47.59359,-54.27349
2020-11-30 03:44:01+00:00,276.0,9.36,284.0,11.38,12.33,47.59359,-54.27349
2020-11-30 03:54:01+00:00,272.0,9.52,267.0,11.4,12.33,47.59359,-54.27349
2020-11-30 04:04:01+00:00,274.0,10.96,276.0,12.86,12.33,47.59359,-54.27349
2020-11-30 04:14:01+00:00,277.0,10.25,277.0,11.63,12.25,47.59359,-54.27349
2020-11-30 04:24:01+00:00,277.0,10.97,275.0,13.21,12.25,47.59359,-54.27349
2020-11-30 04:34:01+00:00,279.0,11.83,275.0,14.85,12.25,47.59359,-54.27349
2020-11-30 04:44:01+00:00,283.0,13.05,281.0,14.68,12.25,47.59359,-54.27349
2020-11-30 04:54:01+00:00,275.0,12.34,278.0,14.49,12.25,47.59359,-54.27349
2020-11-30 05:04:01+00:00,271.0,11.41,269.0,13.42,12.25,47.59359,-54.27349
2020-11-30 05:14:01+00:00,271.0,11.26,269.0,14.06,12.33,47.59359,-54.27349
2020-11-30 05:24:01+00:00,271.0,11.02,270.0,13.66,12.33,47.59359,-54.27349
2020-11-30 05:34:01+00:00,269.0,10.89,267.0,13.01,12.33,47.59359,-54.27349
2020-11-30 05:44:01+00:00,273.0,10.62,282.0,12.19,12.33,47.59359,-54.27349
2020-11-30 05:54:01+00:00,270.0,11.99,265.0,13.78,12.33,47.59359,-54.27349
2020-11-30 06:04:01+00:00,272.0,12.15,274.0,14.51,12.33,47.59359,-54.27349
2020-11-30 06:14:01+00:00,273.0,11.57,283.0,15.3,12.17,47.59359,-54.27349
2020-11-30 06:24:01+00:00,270.0,10.61,275.0,12.59,12.17,47.59359,-54.27349
2020-11-30 06:34:01+00:00,272.0,9.86,269.0,11.7,12.17,47.59359,-54.27349
2020-11-30 06:44:01+00:00,272.0,10.03,275.0,11.63,12.17,47.59359,-54.27349
2020-11-30 06:54:01+00:00,276.0,12.71,274.0,15.6,12.17,47.59359,-54.27349
2020-11-30 07:04:01+00:00,282.0,11.89,285.0,13.96,12.17,47.59359,-54.27349
2020-11-30 07:14:01+00:00,279.0,13.54,278.0,15.77,12.17,47.59359,-54.27349
2020-11-30 07:24:01+00:00,282.0,14.26,283.0,16.86,12.17,47.59359,-54.27349
2020-11-30 07:34:01+00:00,282.0,12.56,277.0,14.38,12.17,47.59359,-54.27349
2020-11-30 07:44:01+00:00,277.0,12.02,274.0,14.66,12.17,47.59359,-54.27349
2020-11-30 07:54:01+00:00,284.0,12.21,288.0,15.22,12.17,47.59359,-54.27349
2020-11-30 08:04:01+00:00,282.0,10.88,285.0,12.61,12.17,47.59359,-54.27349
2020-11-30 08:14:01+00:00,276.0,10.63,286.0,12.2,12.17,47.59359,-54.27349
2020-11-30 08:24:01+00:00,278.0,12.23,276.0,13.9,12.17,47.59359,-54.27349
2020-11-30 08:34:01+00:00,281.0,10.2,287.0,12.95,12.17,47.59359,-54.27349
2020-11-30 08:44:01+00:00,274.0,11.29,276.0,12.75,12.17,47.59359,-54.27349
2020-11-30 08:54:01+00:00,270.0,9.79,266.0,11.89,12.17,47.59359,-54.27349
2020-11-30 09:04:01+00:00,276.0,11.14,277.0,12.6,12.17,47.59359,-54.27349
2020-11-30 09:14:01+00:00,278.0,9.59,276.0,11.77,12.17,47.59359,-54.27349
2020-11-30 09:24:01+00:00,264.0,8.04,258.0,9.22,12.17,47.59359,-54.27349
2020-11-30 09:34:01+00:00,274.0,10.01,272.0,11.57,12.17,47.59359,-54.27349
2020-11-30 09:44:01+00:00,278.0,9.96,278.0,12.39,12.17,47.59359,-54.27349
2020-11-30 09:54:01+00:00,282.0,8.71,280.0,11.73,12.17,47.59359,-54.27349
2020-11-30 10:04:01+00:00,280.0,9.27,289.0,11.53,12.17,47.59359,-54.27349
2020-11-30 10:14:01+00:00,284.0,9.47,284.0,11.58,12.25,47.59359,-54.27349
2020-11-30 10:24:01+00:00,268.0,9.43,269.0,10.96,12.25,47.59359,-54.27349
2020-11-30 10:34:01+00:00,276.0,9.03,275.0,10.67,12.25,47.59359,-54.27349
2020-11-30 10:44:01+00:00,278.0,8.23,276.0,9.29,12.25,47.59359,-54.27349
2020-11-30 10:54:01+00:00,285.0,8.79,281.0,10.37,12.25,47.59359,-54.27349
2020-11-30 11:04:01+00:00,289.0,7.8,297.0,9.72,12.25,47.59359,-54.27349
2020-11-30 11:14:01+00:00,280.0,8.05,274.0,9.22,12.17,47.59359,-54.27349
2020-11-30 11:24:01+00:00,280.0,8.67,278.0,10.02,12.17,47.59359,-54.27349
2020-11-30 11:34:01+00:00,288.0,8.33,289.0,9.27,12.17,47.59359,-54.27349
2020-11-30 11:44:01+00:00,284.0,9.66,278.0,11.41,12.17,47.59359,-54.27349
2020-11-30 11:54:01+00:00,284.0,10.0,276.0,11.44,12.17,47.59359,-54.27349
2020-11-30 12:04:01+00:00,296.0,10.49,300.0,12.95,12.17,47.59359,-54.27349
2020-11-30 12:14:01+00:00,307.0,9.51,312.0,11.36,14.32,47.59359,-54.27349
2020-11-30 12:24:01+00:00,305.0,10.29,295.0,12.44,14.32,47.59359,-54.27349
2020-11-30 12:34:01+00:00,309.0,9.66,305.0,11.02,14.32,47.59359,-54.27349
2020-11-30 12:44:01+00:00,307.0,8.02,308.0,9.37,14.32,47.59359,-54.27349
2020-11-30 12:54:01+00:00,300.0,9.92,295.0,12.74,14.32,47.59359,-54.27349
2020-11-30 13:04:01+00:00,313.0,9.82,320.0,12.57,14.32,47.59359,-54.27349
2020-11-30 13:14:01+00:00,314.0,9.9,313.0,11.4,13.84,47.59359,-54.27349
2020-11-30 13:24:01+00:00,316.0,8.58,315.0,10.26,13.84,47.59359,-54.27349
2020-11-30 13:34:01+00:00,310.0,9.2,306.0,10.78,13.84,47.59359,-54.27349
2020-11-30 13:44:01+00:00,305.0,9.97,299.0,12.35,13.84,47.59359,-54.27349
2020-11-30 13:54:01+00:00,318.0,8.99,325.0,11.9,13.84,47.59359,-54.27349
2020-11-30 14:04:01+00:00,317.0,7.64,323.0,9.83,13.84,47.59359,-54.27349
2020-11-30 14:14:01+00:00,280.0,5.71,301.0,6.9,14.24,47.59359,-54.27349
2020-11-30 14:24:01+00:00,292.0,6.22,304.0,7.41,14.24,47.59359,-54.27349
2020-11-30 14:34:01+00:00,325.0,7.58,328.0,9.52,14.24,47.59359,-54.27349
2020-11-30 14:44:01+00:00,312.0,7.33,320.0,9.07,14.24,47.59359,-54.27349
2020-11-30 14:54:01+00:00,312.0,7.48,319.0,8.48,14.24,47.59359,-54.27349
2020-11-30 15:04:01+00:00,305.0,6.87,302.0,7.8,14.24,47.59359,-54.27349
2020-11-30 15:14:01+00:00,305.0,5.59,308.0,6.47,14.32,47.59359,-54.27349
2020-11-30 15:24:01+00:00,296.0,6.22,292.0,7.13,14.32,47.59359,-54.27349
2020-11-30 15:34:01+00:00,310.0,5.84,310.0,6.63,14.32,47.59359,-54.27349
2020-11-30 15:44:01+00:00,291.0,6.71,295.0,7.28,14.32,47.59359,-54.27349
2020-11-30 15:54:01+00:00,300.0,3.79,294.0,5.02,14.32,47.59359,-54.27349
2020-11-30 16:04:01+00:00,320.0,3.6,324.0,4.3,14.32,47.59359,-54.27349
2020-11-30 16:14:01+00:00,281.0,4.25,280.0,5.26,14.24,47.59359,-54.27349
2020-11-30 16:24:01+00:00,282.0,6.18,284.0,6.76,14.24,47.59359,-54.27349
2020-11-30 16:34:01+00:00,276.0,4.95,274.0,5.49,14.24,47.59359,-54.27349
2020-11-30 16:44:01+00:00,276.0,2.93,280.0,3.47,14.24,47.59359,-54.27349
2020-11-30 16:54:01+00:00,269.0,4.64,269.0,5.29,14.24,47.59359,-54.27349
2020-11-30 17:04:01+00:00,270.0,4.57,268.0,5.69,14.24,47.59359,-54.27349
2020-11-30 17:14:01+00:00,286.0,3.68,284.0,4.24,13.76,47.59359,-54.27349
2020-11-30 17:24:01+00:00,291.0,3.69,296.0,4.47,13.76,47.59359,-54.27349
2020-11-30 17:34:01+00:00,304.0,5.3,305.0,6.19,13.76,47.59359,-54.27349
2020-11-30 17:44:01+00:00,297.0,3.68,307.0,4.23,13.76,47.59359,-54.27349
2020-11-30 17:54:01+00:00,300.0,3.03,298.0,3.46,13.76,47.59359,-54.27349
2020-11-30 18:04:01+00:00,312.0,3.03,312.0,3.57,13.76,47.59359,-54.27349
2020-11-30 18:14:01+00:00,300.0,2.56,305.0,2.93,14.32,47.59359,-54.27349
2020-11-30 18:24:01+00:00,278.0,2.1,280.0,2.4,14.32,47.59359,-54.27349
2020-11-30 18:34:01+00:00,316.0,1.45,316.0,1.83,14.32,47.59359,-54.27349
2020-11-30 18:44:01+00:00,283.0,2.32,288.0,2.73,14.32,47.59359,-54.27349
2020-11-30 18:54:01+00:00,284.0,2.44,279.0,2.78,14.32,47.59359,-54.27349
2020-11-30 19:04:01+00:00,277.0,3.51,272.0,3.98,14.32,47.59359,-54.27349
2020-11-30 19:14:01+00:00,265.0,3.58,268.0,4.57,13.84,47.59359,-54.27349
2020-11-30 19:24:01+00:00,257.0,4.3,261.0,4.79,13.84,47.59359,-54.27349
2020-11-30 19:34:01+00:00,267.0,3.93,264.0,4.18,13.84,47.59359,-54.27349
2020-11-30 19:44:01+00:00,283.0,3.01,278.0,3.68,13.84,47.59359,-54.27349
2020-11-30 19:54:01+00:00,284.0,3.43,284.0,3.72,13.84,47.59359,-54.27349
2020-11-30 20:04:01+00:00,272.0,3.17,280.0,3.69,13.84,47.59359,-54.27349
2020-11-30 20:14:01+00:00,270.0,2.64,269.0,3.21,12.81,47.59359,-54.27349
2020-11-30 20:24:01+00:00,270.0,2.65,271.0,2.98,12.81,47.59359,-54.27349
2020-11-30 20:34:01+00:00,265.0,1.95,269.0,2.36,12.81,47.59359,-54.27349
2020-11-30 20:44:01+00:00,273.0,3.18,275.0,3.48,12.81,47.59359,-54.27349
2020-11-30 20:54:01+00:00,273.0,3.52,274.0,4.05,12.81,47.59359,-54.27349
2020-11-30 21:04:01+00:00,275.0,3.65,274.0,3.9,12.81,47.59359,-54.27349
2020-11-30 21:14:01+00:00,266.0,3.0,270.0,3.55,12.73,47.59359,-54.27349
2020-11-30 21:24:01+00:00,284.0,3.09,288.0,3.73,12.73,47.59359,-54.27349
2020-11-30 21:34:01+00:00,281.0,2.43,274.0,3.16,12.73,47.59359,-54.27349
2020-11-30 21:44:01+00:00,276.0,3.93,272.0,4.26,12.73,47.59359,-54.27349
2020-11-30 21:54:01+00:00,293.0,3.75,289.0,4.45,12.73,47.59359,-54.27349
2020-11-30 22:04:01+00:00,278.0,2.81,282.0,3.17,12.73,47.59359,-54.27349
2020-11-30 22:14:01+00:00,285.0,3.28,287.0,4.11,12.57,47.59359,-54.27349
2020-11-30 22:24:01+00:00,299.0,1.9,296.0,2.22,12.57,47.59359,-54.27349
2020-11-30 22:34:01+00:00,299.0,2.5,294.0,3.11,12.57,47.59359,-54.27349
2020-11-30 22:44:01+00:00,295.0,3.01,298.0,3.42,12.57,47.59359,-54.27349
2020-11-30 22:54:01+00:00,280.0,2.31,288.0,2.72,12.57,47.59359,-54.27349
2020-11-30 23:04:01+00:00,272.0,2.37,271.0,2.94,12.57,47.59359,-54.27349
2020-11-30 23:14:01+00:00,251.0,2.45,251.0,2.96,12.49,47.59359,-54.27349
2020-11-30 23:24:01+00:00,239.0,2.29,234.0,2.76,12.49,47.59359,-54.27349
2020-11-30 23:34:01+00:00,235.0,2.32,237.0,2.65,12.49,47.59359,-54.27349
2020-11-30 23:44:01+00:00,233.0,2.06,231.0,2.43,12.49,47.59359,-54.27349
2020-11-30 23:54:01+00:00,232.0,1.35,239.0,1.63,12.49,47.59359,-54.27349
